Temp
30 28 28 27 26 25 24 23 23 22 21 21 21 20 20 20 20 20 20 20 19 18 18 18 17 17 18 18 19 18 17 17 17
31 28 28 27 26 25 24 23 23 22 22 21 20 20 20 20 20 19 19 19 19 18 18 18 18 18 18 18 18 18 18 18 18
30 29 27 27 26 25 24 24 23 22 22 22 21 20 20 20 20 20 19 19 19 19 18 18 18 18 17 17 17 18 18 17 17
30 28 27 26 26 25 24 23 23 22 22 21 21 20 21 20 20 20 19 20 20 20 20 20 20 19 17 17 16 16 17 16 16
30 29 28 27 26 25 24 23 22 22 21 21 21 20 21 20 20 20 20 21 21 21 20 20 19 18 16 15 16 16 16 16 15
29 29 28 27 26 25 24 23 23 22 21 22 21 21 21 21 20 21 21 21 21 21 20 19 19 17 16 16 16 16 16 16 15
27 27 28 27 26 25 24 24 23 22 21 21 21 21 21 21 20 20 20 21 20 20 20 19 18 17 16 16 16 14 14 15 15
28 27 28 27 26 26 25 24 23 22 22 22 22 21 21 21 20 20 20 20 21 20 20 19 18 17 16 16 15 15 14 14 14
28 28 28 28 27 26 25 24 24 23 22 22 21 21 20 20 19 19 19 20 20 20 19 19 18 17 17 15 15 14 14 14 14
31 30 29 28 28 27 26 25 24 23 22 22 21 20 20 20 19 19 19 19 19 19 18 18 17 17 16 15 14 14 14 14 14
31 31 29 29 28 27 26 25 24 24 23 22 21 20 20 20 18 18 18 19 18 18 17 17 16 16 16 15 15 14 14 13 14
29 29 29 29 29 28 27 25 25 23 22 21 20 20 19 19 18 17 17 17 18 18 17 17 16 16 15 14 15 14 13 13 14
27 27 29 29 29 28 25 22 23 22 21 21 20 19 18 19 17 18 18 19 18 17 16 16 15 14 14 14 14 14 14 14 14
25 25 26 28 27 24 22 19 14 13 21 21 20 19 19 18 17 18 16 16 16 16 16 16 15 15 14 14 14 14 14 14 14
25 24 23 24 23 20 21 22 17 14 14 17 19 17 16 15 15 15 15 16 16 16 16 15 15 15 15 15 15 15 14 14 14
23 22 21 21 22 23 22 20 16 13 13 17 17 18 16 16 15 15 16 16 16 15 15 15 15 15 15 15 15 15 14 14 14
20 18 18 18 18 19 19 18 17 18 17 17 17 17 15 16 16 15 15 15 15 14 15 15 15 15 14 15 15 15 15 14 14
20 18 17 17 15 15 15 17 17 16 16 15 15 15 15 15 15 15 16 16 15 15 15 15 15 15 15 15 15 15 15 14 14
20 18 17 17 16 16 15 15 16 15 15 15 15 16 16 15 15 16 16 16 16 16 16 16 16 16 16 15 16 15 15 15 14
18 18 17 17 17 18 16 15 15 15 15 15 15 15 15 16 16 16 17 16 16 17 16 16 16 16 15 15 15 15 14 14 13
Height
1481 1488 1494 1499 1504 1508 1513 1516 1519 1522 1526 1529 1532 1536 1539 1542 1544 1546 1546 1547 1548 1549 1549 1549 1549 1547 1546 1545 1545 1546 1546 1546 1545
1482 1487 1492 1498 1503 1507 1511 1515 1517 1520 1523 1526 1529 1533 1537 1539 1542 1543 1544 1545 1546 1546 1547 1547 1547 1546 1544 1543 1543 1544 1544 1544 1544
1481 1483 1487 1493 1499 1504 1509 1514 1516 1519 1522 1525 1527 1531 1534 1538 1540 1541 1543 1543 1543 1544 1545 1544 1545 1545 1544 1543 1542 1542 1542 1542 1542
1481 1485 1489 1490 1495 1501 1507 1512 1515 1517 1521 1524 1526 1529 1532 1535 1537 1538 1541 1542 1543 1542 1543 1542 1543 1543 1543 1542 1541 1542 1541 1540 1540
1475 1480 1485 1491 1494 1497 1504 1509 1512 1515 1518 1521 1524 1526 1530 1532 1535 1536 1538 1540 1541 1542 1542 1542 1542 1542 1543 1542 1541 1541 1540 1540 1540
1477 1479 1485 1490 1492 1496 1500 1506 1509 1513 1516 1519 1521 1525 1527 1530 1533 1535 1536 1538 1540 1541 1541 1541 1542 1543 1543 1543 1542 1540 1540 1539 1538
1471 1484 1482 1485 1489 1490 1496 1501 1505 1508 1512 1514 1517 1520 1523 1526 1529 1532 1534 1536 1537 1539 1540 1541 1541 1541 1542 1541 1541 1540 1539 1539 1537
1467 1476 1475 1478 1482 1483 1488 1494 1498 1501 1506 1508 1511 1514 1518 1521 1523 1525 1527 1530 1533 1535 1537 1538 1538 1539 1539 1539 1538 1538 1538 1539 1538
1467 1467 1468 1470 1472 1475 1479 1485 1492 1497 1501 1503 1506 1509 1513 1517 1519 1521 1524 1526 1528 1529 1531 1533 1534 1535 1535 1536 1536 1537 1537 1537 1535
1460 1460 1462 1463 1465 1470 1474 1479 1487 1495 1502 1506 1509 1510 1512 1513 1516 1519 1523 1525 1526 1527 1528 1529 1530 1531 1532 1533 1533 1534 1534 1533 1532
1458 1460 1461 1461 1464 1466 1471 1475 1482 1491 1497 1503 1509 1510 1510 1511 1516 1520 1525 1526 1525 1525 1525 1525 1527 1528 1529 1529 1530 1531 1531 1531 1530
1460 1460 1461 1462 1457 1459 1462 1466 1472 1480 1491 1496 1502 1507 1510 1511 1515 1518 1524 1527 1527 1527 1524 1521 1521 1523 1526 1527 1526 1527 1528 1529 1527
1458 1457 1456 1456 1456 1455 1461 1470 1464 1472 1475 1484 1495 1499 1506 1507 1513 1512 1515 1520 1522 1523 1525 1522 1520 1519 1519 1522 1524 1525 1526 1526 1525
1460 1459 1455 1449 1449 1454 1463 1458 1448 1480 1479 1472 1481 1493 1502 1504 1509 1511 1516 1521 1522 1524 1522 1521 1519 1519 1518 1518 1520 1522 1523 1524 1523
1459 1459 1457 1456 1452 1455 1459 1456 1468 1492 1464 1460 1489 1496 1503 1507 1515 1515 1515 1518 1520 1521 1521 1519 1517 1517 1517 1517 1518 1519 1520 1522 1521
1459 1459 1461 1459 1454 1453 1458 1464 1468 1479 1472 1487 1493 1487 1501 1505 1511 1514 1517 1514 1517 1520 1520 1517 1515 1514 1515 1516 1516 1516 1517 1518 1519
1459 1463 1465 1465 1465 1461 1459 1465 1470 1468 1476 1483 1486 1495 1496 1500 1508 1510 1514 1512 1514 1517 1517 1516 1513 1511 1511 1510 1512 1512 1514 1515 1516
1466 1467 1473 1475 1472 1475 1478 1479 1481 1481 1483 1482 1492 1496 1499 1504 1504 1508 1509 1511 1513 1514 1513 1514 1512 1510 1508 1508 1508 1508 1510 1512 1512
1469 1471 1473 1476 1479 1482 1489 1485 1479 1479 1482 1486 1493 1497 1501 1503 1503 1506 1505 1509 1510 1514 1512 1511 1510 1509 1506 1505 1505 1505 1508 1509 1509
1469 1473 1477 1480 1480 1477 1483 1489 1486 1485 1487 1492 1495 1499 1501 1502 1504 1504 1503 1507 1510 1509 1510 1507 1505 1506 1504 1504 1505 1504 1506 1506 1506
Wind_Speed
31 35 35 33 32 29 32 26 24 21 16 21 23 22 19 18 15 11 9 7 4 2 3 3 8 12 9 6 7 7 6 6 7
27 35 36 33 34 30 29 26 22 18 14 20 23 19 17 14 11 11 9 5 6 5 6 9 9 5 5 4 4 2 4 7 7
24 34 39 33 33 30 26 21 22 19 16 19 21 18 16 13 13 12 11 11 9 8 7 9 10 8 4 3 3 2 1 4 5
34 34 34 34 33 28 25 23 25 21 19 20 21 17 13 14 13 13 11 9 9 9 6 4 2 2 2 2 3 5 4 2 5
35 33 33 32 32 29 27 26 27 23 21 23 22 21 17 16 15 14 12 8 7 5 2 2 2 2 1 1 5 6 4 3 2
26 33 32 33 33 32 30 30 28 25 23 24 22 26 22 20 17 13 10 8 7 5 3 1 1 1 1 3 5 6 7 6 5
34 30 36 35 36 34 32 32 30 26 27 25 25 27 25 23 19 17 13 9 6 5 4 4 3 2 4 5 5 3 6 6 11
27 39 39 38 39 36 34 34 33 30 30 30 30 30 28 23 20 21 16 12 9 6 5 5 4 4 5 3 4 5 9 8 11
30 39 41 40 40 40 40 39 38 35 33 33 31 32 28 24 23 24 19 14 12 10 8 4 4 5 4 2 7 6 9 13 13
23 38 41 42 43 43 43 43 41 39 35 33 32 27 25 25 25 25 19 16 13 9 7 5 3 4 5 7 8 10 11 12 10
4 2 34 40 41 41 44 44 42 38 37 35 32 30 28 26 23 24 20 16 12 9 6 4 5 6 6 6 9 10 9 10 8
11 13 11 29 39 41 44 48 45 41 39 35 35 32 28 23 22 20 17 13 10 7 6 6 5 4 5 7 7 8 10 11 11
17 15 15 16 29 43 42 32 48 42 45 39 35 31 27 23 22 19 18 14 10 7 6 6 6 6 6 10 10 8 6 9 10
12 14 15 13 19 29 25 14 31 61 31 35 29 26 24 21 17 16 13 10 8 6 6 7 7 8 7 10 10 1 5 10 9
12 14 14 8 15 15 8 8 32 59 47 26 13 12 10 11 15 14 13 10 7 7 7 6 4 4 1 2 1 4 4 5 10
13 17 17 13 13 9 5 6 10 8 10 19 5 15 14 13 15 14 11 8 5 7 4 3 4 4 4 5 8 7 6 7 8
19 25 20 17 15 11 14 22 17 6 24 6 17 20 20 16 14 14 7 4 6 4 1 2 2 4 8 10 9 8 8 10 10
19 22 23 18 21 26 30 6 7 13 15 16 23 21 16 16 12 6 2 1 2 2 3 6 8 9 12 12 11 10 10 9 12
17 20 22 23 22 14 6 3 8 11 14 18 19 16 14 10 7 2 1 1 2 3 5 6 7 8 7 6 9 16 19 21 21
15 16 16 19 17 15 12 5 10 12 14 15 10 5 4 6 6 3 2 5 5 6 6 8 10 10 11 12 10 9 10 12 15
Wind_Direction
152 161 171 171 173 175 175 175 185 187 205 187 187 192 210 216 218 217 229 248 261 204 220 245 272 294 291 283 272 270 267 252 246
149 157 163 163 168 174 173 177 187 202 188 181 188 194 190 196 197 196 218 225 203 220 235 244 279 284 295 291 304 313 244 251 270
146 149 160 163 170 175 181 185 190 197 200 187 180 180 178 183 193 213 217 216 231 223 238 261 275 284 276 313 333 358 296 292 303
147 152 157 164 170 178 184 184 192 194 201 187 172 163 166 187 199 200 218 228 220 233 239 233 221 242 279 342 339 351 1 348 9
157 162 165 170 173 177 183 186 194 199 197 178 173 179 187 193 205 219 225 188 185 181 181 119 51 33 27 16 337 355 7 22 10
149 162 166 172 176 178 181 186 195 197 184 174 179 188 197 204 205 212 195 195 175 169 160 147 62 346 336 311 348 357 3 14 22
165 201 171 174 178 179 184 190 196 197 185 187 190 196 203 203 210 216 204 202 187 177 168 185 218 268 310 327 339 341 325 11 2
189 183 174 179 183 184 189 193 196 197 189 196 198 201 201 208 213 207 204 199 193 192 194 196 225 240 264 296 265 313 285 293 322
170 177 182 184 190 190 192 195 197 197 194 200 200 197 202 211 211 208 209 202 200 195 201 212 234 240 245 246 273 290 286 290 302
177 190 190 192 195 198 197 198 200 198 198 202 200 201 210 212 213 209 210 211 202 197 200 217 235 243 240 247 261 281 293 300 301
1 237 206 200 199 202 204 201 200 200 197 202 204 207 211 214 212 211 216 210 202 200 203 231 258 263 268 275 275 277 295 308 314
333 312 314 220 211 211 208 201 200 193 192 192 200 206 209 214 211 212 209 209 213 224 231 226 227 245 276 300 288 278 285 298 305
342 321 287 274 229 215 199 184 191 183 184 190 197 205 215 211 213 214 201 205 207 220 241 243 233 231 251 280 289 300 318 324 312
341 2 344 303 188 172 181 98 340 343 215 188 196 208 213 217 212 191 190 202 219 242 234 236 237 242 259 274 281 327 341 351 340
335 347 1 29 165 162 199 269 310 311 309 145 187 197 208 185 188 190 193 214 234 245 245 240 251 271 161 57 342 298 290 337 349
12 18 7 346 339 315 341 170 160 149 63 40 192 140 194 193 206 209 209 217 245 246 243 153 91 59 27 349 299 306 271 275 302
61 57 50 45 57 63 94 121 117 129 195 204 204 188 190 186 206 206 225 247 229 203 341 356 344 317 300 293 289 292 279 267 272
66 74 78 63 104 113 128 105 204 201 203 166 185 188 196 187 182 188 119 72 71 355 291 286 288 289 280 278 283 282 285 276 267
80 79 86 93 108 97 28 131 142 143 150 166 189 190 183 184 174 167 288 185 81 354 327 315 322 328 332 330 285 280 282 285 286
85 83 104 98 75 92 119 117 104 132 165 169 158 155 187 176 179 228 357 244 251 296 306 308 310 301 302 294 287 284 270 276 282